TimePDT,TemperatureF,Dew PointF,Humidity,Sea Level PressureIn,VisibilityMPH,Wind Direction,Wind SpeedMPH,Gust SpeedMPH,PrecipitationIn,Events,Conditions,WindDirDegrees,DateUTC
12:52 AM,57.0,21.9,26,30.14,10.0,Variable,3.5,-,N/A,,Clear,0,2013-03-11 07:52:00
1:52 AM,55.0,19.9,25,30.14,10.0,SW,6.9,-,N/A,,Clear,220,2013-03-11 08:52:00
3:52 AM,50.0,21.9,33,30.13,10.0,Variable,4.6,-,N/A,,Clear,0,2013-03-11 10:52:00
4:52 AM,48.0,23.0,37,30.13,10.0,NNW,6.9,-,N/A,,Clear,340,2013-03-11 11:52:00
5:52 AM,46.9,23.0,39,30.14,10.0,North,6.9,-,N/A,,Clear,10,2013-03-11 12:52:00
6:52 AM,51.1,21.9,32,30.15,10.0,SSW,3.5,-,N/A,,Clear,210,2013-03-11 13:52:00
7:52 AM,51.1,25.0,36,30.16,10.0,Calm,Calm,-,N/A,,Clear,0,2013-03-11 14:52:00
8:52 AM,59.0,23.0,25,30.17,10.0,Calm,Calm,-,N/A,,Clear,0,2013-03-11 15:52:00
9:52 AM,63.0,25.0,24,30.18,10.0,Calm,Calm,-,N/A,,Clear,0,2013-03-11 16:52:00
10:52 AM,68.0,25.0,20,30.17,10.0,Calm,Calm,-,N/A,,Clear,0,2013-03-11 17:52:00
11:52 AM,73.0,27.0,18,30.15,10.0,Variable,4.6,-,N/A,,Clear,0,2013-03-11 18:52:00
12:52 PM,75.9,26.1,16,30.12,10.0,South,4.6,-,N/A,,Clear,170,2013-03-11 19:52:00
1:52 PM,80.1,26.1,14,30.07,10.0,NNE,9.2,17.3,N/A,,Clear,20,2013-03-11 20:52:00
2:52 PM,80.1,26.1,14,30.05,10.0,NNW,10.4,-,N/A,,Clear,340,2013-03-11 21:52:00
3:52 PM,81.0,25.0,13,30.02,10.0,North,6.9,-,N/A,,Clear,350,2013-03-11 22:52:00
4:52 PM,81.0,24.1,12,30.00,10.0,NNE,6.9,-,N/A,,Clear,20,2013-03-11 23:52:00
5:52 PM,80.1,21.0,11,29.99,10.0,North,4.6,-,N/A,,Clear,360,2013-03-12 00:52:00
6:52 PM,73.9,26.1,17,29.98,10.0,SSE,3.5,-,N/A,,Clear,150,2013-03-12 01:52:00
7:52 PM,71.1,30.9,23,29.99,10.0,SSW,3.5,-,N/A,,Clear,200,2013-03-12 02:52:00
8:52 PM,66.9,30.9,26,30.01,10.0,Calm,Calm,-,N/A,,Clear,0,2013-03-12 03:52:00
9:52 PM,62.1,28.0,28,30.02,10.0,NNW,4.6,-,N/A,,Clear,330,2013-03-12 04:52:00
10:52 PM,57.0,24.1,28,30.03,10.0,North,4.6,-,N/A,,Clear,360,2013-03-12 05:52:00
11:52 PM,62.1,26.1,25,30.02,10.0,WSW,4.6,-,N/A,,Clear,240,2013-03-12 06:52:00